TimeCST,TemperatureF,Dew PointF,Humidity,Sea Level PressureIn,VisibilityMPH,Wind Direction,Wind SpeedMPH,Gust SpeedMPH,PrecipitationIn,Events,Conditions,WindDirDegrees,DateUTC
12:08 AM,5.0,-2.2,72,30.22,10.0,Calm,Calm,-,N/A,,Overcast,0,2013-01-23 06:08:00
12:29 AM,5.0,-2.2,72,30.21,10.0,Calm,Calm,-,N/A,,Overcast,0,2013-01-23 06:29:00
12:48 AM,6.8,-2.2,67,30.21,10.0,Calm,Calm,-,N/A,,Overcast,0,2013-01-23 06:48:00
1:09 AM,6.8,-0.4,72,30.20,10.0,Calm,Calm,-,N/A,,Overcast,0,2013-01-23 07:09:00
1:29 AM,6.8,-0.4,72,30.19,10.0,Calm,Calm,-,N/A,,Overcast,0,2013-01-23 07:29:00
1:48 AM,6.8,-0.4,72,30.19,10.0,Calm,Calm,-,N/A,,Overcast,0,2013-01-23 07:48:00
2:09 AM,6.8,-0.4,72,30.19,10.0,Calm,Calm,-,N/A,,Overcast,0,2013-01-23 08:09:00
2:29 AM,6.8,-0.4,72,30.19,10.0,Calm,Calm,-,N/A,,Overcast,0,2013-01-23 08:29:00
2:48 AM,6.8,1.4,79,30.18,4.0,Calm,Calm,-,N/A,Snow,Light Snow,0,2013-01-23 08:48:00
3:09 AM,6.8,1.4,79,30.17,2.0,Calm,Calm,-,N/A,Snow,Light Snow,0,2013-01-23 09:09:00
3:28 AM,6.8,3.2,85,30.16,2.0,SSE,3.5,-,N/A,Snow,Light Snow,160,2013-01-23 09:28:00
3:48 AM,8.6,3.2,79,30.16,4.0,Calm,Calm,-,N/A,Snow,Light Snow,0,2013-01-23 09:48:00
4:09 AM,8.6,3.2,79,30.16,1.8,Calm,Calm,-,N/A,Snow,Light Snow,0,2013-01-23 10:09:00
4:28 AM,8.6,3.2,79,30.15,1.8,Calm,Calm,-,N/A,Snow,Light Snow,0,2013-01-23 10:28:00
4:49 AM,8.6,3.2,79,30.14,4.0,Calm,Calm,-,N/A,Snow,Light Snow,0,2013-01-23 10:49:00
5:09 AM,8.6,3.2,79,30.13,3.0,Calm,Calm,-,N/A,Snow,Light Snow,0,2013-01-23 11:09:00
5:28 AM,8.6,5.0,85,30.13,3.0,Calm,Calm,-,N/A,Snow,Light Snow,0,2013-01-23 11:28:00
5:49 AM,8.6,5.0,85,30.13,2.5,Calm,Calm,-,N/A,Snow,Light Snow,0,2013-01-23 11:49:00
6:09 AM,8.6,5.0,85,30.14,2.5,Calm,Calm,-,N/A,Snow,Light Snow,0,2013-01-23 12:09:00
6:28 AM,8.6,5.0,85,30.13,1.8,Calm,Calm,-,N/A,Snow,Light Snow,0,2013-01-23 12:28:00
6:49 AM,8.6,6.8,92,30.13,1.8,Calm,Calm,-,N/A,Snow,Light Snow,0,2013-01-23 12:49:00
7:08 AM,8.6,6.8,92,30.13,2.0,Calm,Calm,-,N/A,Snow,Light Snow,0,2013-01-23 13:08:00
7:29 AM,8.6,6.8,92,30.13,1.5,Calm,Calm,-,N/A,Snow,Light Snow,0,2013-01-23 13:29:00
7:48 AM,8.6,6.8,92,30.13,1.5,Calm,Calm,-,N/A,Snow,Light Snow,0,2013-01-23 13:48:00
8:09 AM,8.6,6.8,92,30.14,2.5,West,3.5,-,N/A,Snow,Light Snow,260,2013-01-23 14:09:00
8:29 AM,8.6,6.8,92,30.14,2.5,West,4.6,-,N/A,Snow,Light Snow,270,2013-01-23 14:29:00
8:49 AM,10.4,6.8,85,30.14,2.5,West,6.9,-,N/A,Snow,Light Snow,270,2013-01-23 14:49:00
9:08 AM,10.4,6.8,85,30.14,4.0,West,10.4,-,N/A,Snow,Light Snow,280,2013-01-23 15:08:00
9:29 AM,10.4,6.8,85,30.15,10.0,NW,10.4,-,N/A,,Scattered Clouds,310,2013-01-23 15:29:00
9:49 AM,10.4,6.8,85,30.15,10.0,WNW,8.1,-,N/A,,Mostly Cloudy,300,2013-01-23 15:49:00
10:08 AM,12.2,6.8,79,30.16,10.0,WNW,9.2,-,N/A,,Scattered Clouds,300,2013-01-23 16:08:00
10:29 AM,12.2,6.8,79,30.16,10.0,WNW,11.5,-,N/A,,Mostly Cloudy,300,2013-01-23 16:29:00
10:49 AM,12.2,6.8,79,30.16,10.0,WNW,15.0,19.6,N/A,,Scattered Clouds,290,2013-01-23 16:49:00
11:08 AM,14.0,6.8,73,30.16,10.0,WNW,15.0,19.6,N/A,,Scattered Clouds,290,2013-01-23 17:08:00
11:29 AM,14.0,6.8,73,30.15,10.0,WNW,15.0,-,N/A,,Clear,300,2013-01-23 17:29:00
11:49 AM,14.0,6.8,73,30.14,10.0,WNW,18.4,23.0,N/A,,Scattered Clouds,290,2013-01-23 17:49:00
12:08 PM,15.8,8.6,73,30.15,10.0,NW,18.4,21.9,N/A,,Mostly Cloudy,310,2013-01-23 18:08:00
12:29 PM,14.0,6.8,73,30.15,10.0,NW,18.4,23.0,N/A,,Overcast,310,2013-01-23 18:29:00
12:49 PM,14.0,6.8,73,30.15,10.0,WNW,18.4,25.3,N/A,,Scattered Clouds,300,2013-01-23 18:49:00
1:08 PM,14.0,5.0,67,30.14,10.0,WNW,20.7,27.6,N/A,,Scattered Clouds,300,2013-01-23 19:08:00
1:29 PM,14.0,3.2,62,30.14,10.0,NW,20.7,26.5,N/A,,Clear,310,2013-01-23 19:29:00
1:48 PM,12.2,3.2,67,30.16,10.0,WNW,20.7,-,N/A,,Scattered Clouds,290,2013-01-23 19:48:00
2:08 PM,12.2,3.2,67,30.17,10.0,WNW,21.9,28.8,N/A,,Scattered Clouds,300,2013-01-23 20:08:00
2:29 PM,12.2,1.4,62,30.18,10.0,NW,25.3,-,N/A,,Scattered Clouds,320,2013-01-23 20:29:00
2:48 PM,12.2,-0.4,57,30.20,10.0,NW,24.2,32.2,N/A,,Scattered Clouds,320,2013-01-23 20:48:00
3:08 PM,10.4,-2.2,57,30.22,10.0,NNW,19.6,28.8,N/A,,Scattered Clouds,340,2013-01-23 21:08:00
3:28 PM,10.4,-0.4,62,30.24,10.0,NW,25.3,-,N/A,,Scattered Clouds,320,2013-01-23 21:28:00
3:48 PM,8.6,-2.2,62,30.25,10.0,NW,24.2,29.9,N/A,,Scattered Clouds,310,2013-01-23 21:48:00
4:09 PM,8.6,-5.8,52,30.28,10.0,NNW,19.6,28.8,N/A,,Scattered Clouds,330,2013-01-23 22:09:00
4:28 PM,6.8,-4.0,61,30.28,10.0,NW,24.2,27.6,N/A,,Clear,320,2013-01-23 22:28:00
4:49 PM,6.8,-7.6,52,30.31,10.0,NNW,18.4,27.6,N/A,,Clear,340,2013-01-23 22:49:00
5:08 PM,3.2,-7.6,61,30.34,10.0,NNW,19.6,25.3,N/A,,Clear,330,2013-01-23 23:08:00
5:29 PM,3.2,-9.4,56,30.35,10.0,NNW,18.4,24.2,N/A,,Clear,330,2013-01-23 23:29:00
5:49 PM,3.2,-9.4,56,30.37,10.0,NNW,18.4,26.5,N/A,,Clear,340,2013-01-23 23:49:00
6:08 PM,3.2,-9.4,56,30.40,10.0,NNW,16.1,24.2,N/A,,Clear,330,2013-01-24 00:08:00
6:29 PM,1.4,-11.2,56,30.40,10.0,NNW,18.4,26.5,N/A,,Clear,330,2013-01-24 00:29:00
6:49 PM,1.4,-11.2,56,30.42,10.0,NNW,11.5,19.6,N/A,,Clear,340,2013-01-24 00:49:00
7:08 PM,1.4,-11.2,56,30.43,10.0,NNW,13.8,20.7,N/A,,Clear,340,2013-01-24 01:08:00
7:29 PM,-0.4,-13.0,55,30.45,10.0,NNW,13.8,20.7,N/A,,Clear,340,2013-01-24 01:29:00
7:48 PM,-0.4,-13.0,55,30.46,10.0,North,13.8,18.4,N/A,,Clear,360,2013-01-24 01:48:00
8:09 PM,-0.4,-14.8,51,30.47,10.0,North,13.8,20.7,N/A,,Clear,360,2013-01-24 02:09:00
8:29 PM,-0.4,-14.8,51,30.48,10.0,North,10.4,20.7,N/A,,Clear,360,2013-01-24 02:29:00
9:09 PM,-2.2,-14.8,55,30.50,10.0,North,11.5,17.3,N/A,,Clear,10,2013-01-24 03:09:00
9:28 PM,-2.2,-14.8,55,30.51,10.0,North,13.8,-,N/A,,Clear,10,2013-01-24 03:28:00
9:48 PM,-2.2,-16.6,50,30.52,10.0,North,12.7,-,N/A,,Clear,10,2013-01-24 03:48:00
10:09 PM,-4.0,-16.6,55,30.53,10.0,North,11.5,-,N/A,,Clear,10,2013-01-24 04:09:00
10:29 PM,-4.0,-16.6,55,30.55,10.0,NNE,10.4,16.1,N/A,,Clear,20,2013-01-24 04:29:00
10:48 PM,-5.8,-16.6,60,30.55,10.0,North,11.5,-,N/A,,Clear,10,2013-01-24 04:48:00
11:09 PM,-5.8,-16.6,60,30.56,10.0,NNE,11.5,16.1,N/A,,Clear,20,2013-01-24 05:09:00
11:28 PM,-5.8,-16.6,60,30.57,10.0,NNE,9.2,-,N/A,,Clear,20,2013-01-24 05:28:00
11:48 PM,-5.8,-16.6,60,30.58,10.0,NNE,8.1,-,N/A,,Clear,20,2013-01-24 05:48:00